{"data":{"norad_id":68263,"intl_designator":"2026-055B","name":"STARLINK-37156","alt_names":[],"object_type":"PAYLOAD","status":"ACTIVE","operator":null,"country":"US","launch_date":"2026-03-19","launch_site_code":"AFETR","launch_vehicle":null,"mission":null,"orbit_class":"UNKNOWN","rcs_meters":null,"size_class":null,"mass_kg":null,"dimensions":null,"purposes":["comms"],"wikipedia_slug":null,"has_3d_model":false,"image_url":null,"decayed_at":null,"tle_current":{"epoch":"2026-05-24T18:57:23.186880Z","epoch_age_seconds":89114,"freshness":"FRESH","line1":"1 68263U 26055B   26144.78985170  .00026899  00000+0  80460-3 0  9999","line2":"2 68263  53.1588 326.4068 0000957  89.1108 271.0004 15.34392126 11578","mean_motion":15.34392126,"eccentricity":9.57e-5,"inclination_deg":53.1588,"raan_deg":326.4068,"arg_perigee_deg":89.1108,"mean_anomaly_deg":271.0004,"bstar":0.0008046,"rev_number":1157,"period_min":93.848239677424,"perigee_km":462.07197284387,"apogee_km":463.38131414524,"semimajor_km":6840.8636434946,"source":"CELESTRAK","updated_at":"2026-05-25T13:38:21.889586Z"}}}